ONEWEB-0098, 45442

Orbit data source: Space-Track

ONEWEB-0098, 45442 is a payload satellite owned by One Web (UK) in LEO that was launched on Sat, 21 Mar 2020 UTC via a SOYUZ-2-1B launch vehicle from the Tyuratam Missile And Space Complex (TTMTR). Payload-class satellites include a variety of spacecraft equipped with specific instruments for various scientific and technological missions. These include communications satellites like Starlink; space stations such as the ISS; scientific satellites like the Hubble; Earth observation satellites from companies like Planet Labs, Umbra, and HawkEye 360; GPS; miniature CubeSats for education and research; and military/defense satellites.

Loading next visibility...
Identifier
45442, 2020-020U
Orbit
LEO
Last TLE update
6 hours ago
Origin
Manufacturer
One Web
Mission
Operational Commercial Communications
Bus & Motor
ARROW, Unknown motor
Mass
148 kg wet, ~140 kg dry
Launch date (UTC)
2020-03-21 (5 years ago)
Launch vehicle
SOYUZ-2-1B
Launch site
Tyuratam Missile And Space Complex (TTMTR)
Object type
Payload
Rocket body
Debris
Shape & HBR
Trap Box + 2 Pan, 5 m
Radar Cross Section
2.957 m², Large (>1 m²)

Expand to show TLE details & history

TLE from 6 hours ago
0 ONEWEB-0098
1 45442U 20020U   25186.73138356  .00000852  00000-0  23669-2 0  9994
2 45442  87.8834  90.1169 0002054  75.8153 284.3203 13.11414139257234
Epoch: 2025-07-05T17:33Z
TLE epoch observation values (Epoch: 2025-07-05T17:33:11.539Z)
Latitude
-0.00003°
Longitude
-97.1464°
Altitude
1,220.197 km
Speed
7.244 km/s
True Right ascension
06h 00m 28s
True Declination
0° 00' 00"
Sunlit
Object was in daylight at epoch
Visualization orbit readout
Latitude
52.12157°
Longitude
-94.48471°
Altitude
1,224.744 km
Speed
7.248 km/s
Apparent Right ascension
02h 36m 13s
Apparent Declination
17° 55' 29"
Sunlit
Object is in daylight
Visualization observer readout
Local Sidereal Time
11:14:59
Azimuth
310.527° NW
Elevation
-15.577°
Doppler factor
1
Orbital elements
Apogee altitude
1,216.371 km
Perigee altitude
1,213.252 km
Semi-major axis
7,592.949 km
Eccentricity
0.00021
Inclination
87.8834°
RAAN
90.1169°
Arg. of periapsis
75.8153°
True anomaly
Unknown
Mean anomaly
284.3203°
Eccentric anomaly
Unknown
Mean motion
3.2804 °/min
Orbital period
109.74 mins
BSTAR
0.0023669
Loading maneuver chart data...
Loading SW <> Apogee altitude chart data...
Loading historical data...
Loading historical data...
Loading historical data...
Loading historical data...
Loading historical data...
Loading historical data...
Loading historical data...

ONEWEB-0098 Visibility forecast

Observer location: undefined°, undefined°

Span
Click to sort rows by Start time (UTC) header in descending order
Start Az.
Max El. time (UTC)
Max El. Az.
Max El.
End time (UTC)
End Az.
13 mins2025-07-06 05:08:39.021Z12.676° NNE2025-07-06 05:14:39.021Z76.122° E36.562°2025-07-06 05:21:39.021Z156.201° SSE
11 mins2025-07-06 06:59:39.021Z332.565° NNW2025-07-06 07:04:39.021Z279.987° WNW26.725°2025-07-06 07:10:39.021Z224.554° SW
12 mins2025-07-06 17:28:39.021Z152.741° SSE2025-07-06 17:33:39.021Z86.545° E38.893°2025-07-06 17:40:39.021Z10.305° NNE
10 mins2025-07-06 19:19:39.021Z236.832° WSW2025-07-06 19:23:39.021Z278.213° WNW24.37°2025-07-06 19:29:39.021Z336.077° NNW
|